Dewpoint
9 8 9 8 8 8 8 8 8 8 8 8 8 8 9 9 9 9 9 8 9 8 8 8 8 7 7 7 8 6 5 5 4 3 1 -0 -1 1 1 2 3 3 2 -0 0 0 -0 1 1 2 3 2 1 3 3 4 4 4 4 4 3 4 4 3 2 2 4 5 4 4 5 3 6 6 6 6 6 5 7 6 7 6 4 4 5
8 7 8 8 7 7 7 7 8 7 7 6 6 7 7 7 8 8 7 7 7 7 8 7 7 5 6 6 7 7 5 4 3 2 -0 -1 -1 -1 -1 -1 1 -1 -2 -2 -2 -1 -2 -1 -2 -1 0 0 1 1 2 1 2 2 3 2 2 3 4 1 1 1 1 3 2 2 2 2 3 1 5 4 5 6 5 1 3 0 5 3 5
7 7 6 6 5 6 6 6 6 5 5 5 5 5 6 6 7 7 5 5 5 5 5 6 3 3 3 4 5 6 5 3 3 1 -1 -2 -3 -2 -2 -2 -1 -3 -4 -4 -3 -3 -3 -3 -4 -2 -2 -2 -1 -1 0 0 0 1 2 1 1 1 1 2 -0 -1 0 0 2 2 2 1 -0 1 1 3 4 4 3 3 3 2 4 3 8
5 6 5 4 5 4 4 4 3 3 3 3 4 4 5 5 6 5 5 2 -0 0 1 3 2 -0 -0 1 3 4 5 4 2 0 -2 -3 -3 -3 -3 -3 -3 -4 -4 -4 -4 -4 -5 -5 -5 -4 -4 -3 -3 -3 -2 -1 -2 -1 -0 0 0 -0 0 0 1 -1 -1 -1 1 1 1 0 -1 -2 -2 2 2 3 2 3 4 4 4 5 6
5 4 4 3 3 3 3 3 2 2 2 2 2 3 3 3 3 4 3 1 -2 -3 -2 -1 -0 -3 -1 -1 0 1 2 4 3 0 -2 -4 -4 -4 -4 -4 -4 -4 -5 -5 -4 -5 -5 -6 -5 -5 -4 -5 -4 -4 -3 -2 -2 -2 -2 -2 -1 -1 -1 -1 -1 0 -1 -2 -1 1 1 1 0 -0 -3 -1 -0 1 2 3 3 3 4 5 5
4 3 3 2 1 1 1 1 1 0 0 0 1 1 2 1 1 2 3 1 -3 -4 -4 -4 -3 -5 -3 -3 -2 -0 1 2 2 1 -2 -4 -5 -5 -6 -5 -5 -5 -5 -6 -5 -5 -6 -6 -6 -5 -5 -5 -5 -4 -3 -3 -2 -2 -2 -2 -2 -1 -2 -1 -1 -1 -1 -2 -1 -1 0 -1 -1 -0 -4 0 -0 -1 1 2 4 4 3 2 3
3 2 2 1 0 -0 -0 -1 -1 -1 -1 -1 -1 -0 1 -0 -1 0 1 -0 -3 -6 -6 -5 -4 -5 -5 -4 -4 -2 -1 1 2 1 -2 -5 -5 -6 -6 -6 -6 -6 -6 -6 -6 -6 -6 -6 -6 -5 -5 -5 -4 -4 -4 -3 -3 -2 -2 -2 -2 -2 -3 -3 -3 -2 -2 -2 -2 -2 -3 -2 -2 -5 -3 -3 -2 -0 -1 -1 -1 1 1 2 1
1 0 -0 -1 -2 -2 -2 -2 -2 -2 -1 -1 -2 -2 -1 -1 -2 -1 -1 -1 -4 -5 -7 -6 -7 -7 -7 -6 -6 -4 -3 -1 0 1 -3 -6 -7 -7 -7 -7 -7 -7 -7 -6 -6 -6 -6 -6 -6 -5 -5 -5 -4 -3 -3 -3 -2 -2 -2 -2 -2 -2 -3 -4 -4 -4 -4 -3 -4 -4 -5 -5 -6 -6 -3 -1 -2 -4 -1 -1 -1 -1 -0 1 2
-2 -2 -2 -3 -3 -3 -2 -2 -2 -2 -2 -2 -3 -4 -3 -3 -4 -3 -3 -3 -3 -5 -7 -7 -8 -8 -8 -7 -7 -5 -5 -3 -1 1 -5 -6 -8 -8 -8 -8 -8 -8 -8 -7 -7 -6 -6 -6 -6 -6 -5 -4 -3 -2 -1 -1 -2 -2 -1 -1 -1 -1 -2 -3 -4 -5 -5 -5 -5 -4 -6 -5 -6 -4 -5 -4 -3 -3 -0 1 -0 -0 -0 -0 0
-6 -5 -6 -5 -4 -5 -4 -4 -4 -4 -4 -4 -4 -4 -4 -4 -5 -5 -4 -4 -4 -5 -7 -8 -8 -8 -8 -8 -8 -7 -7 -4 -1 2 4 -6 -8 -9 -9 -8 -8 -8 -9 -9 -8 -7 -7 -7 -6 -6 -5 -4 -3 -2 -2 -0 0 -1 -1 -1 -1 -1 -2 -3 -4 -4 -4 -6 -6 -5 -5 -5 -5 -3 -3 -1 0 1 -0 -1 -1 -2 -1 -1 -2
-8 -10 -9 -8 -7 -7 -6 -6 -5 -6 -5 -5 -5 -5 -5 -5 -5 -6 -5 -6 -6 -6 -7 -8 -8 -9 -8 -9 -8 -8 -8 -5 -1 3 5 4 -6 -9 -10 -9 -9 -9 -9 -9 -9 -9 -8 -7 -7 -6 -6 -5 -4 -3 -2 -1 -1 -0 1 2 2 0 -1 -2 -3 -2 -3 -5 -4 -4 -5 -4 -3 -2 -2 -1 -0 -1 -2 -1 -2 -2 -2 -4 -5
-11 -11 -10 -10 -10 -9 -9 -8 -7 -7 -7 -7 -6 -6 -6 -6 -6 -6 -7 -7 -8 -8 -8 -8 -8 -9 -9 -9 -9 -9 -9 -5 -1 1 8 9 -1 -9 -11 -11 -9 -10 -10 -10 -10 -9 -9 -9 -8 -7 -7 -6 -5 -4 -3 -2 -2 -1 -1 1 1 1 2 1 -1 -1 -1 -4 -4 -4 -4 -3 -4 -2 -2 -0 -0 -1 -1 -2 -2 -2 -2 -3 -3
-12 -12 -12 -11 -10 -10 -10 -9 -9 -9 -9 -8 -8 -7 -7 -7 -7 -6 -8 -7 -7 -8 -8 -9 -9 -9 -9 -9 -9 -9 -9 -6 -2 0 5 10 8 -6 -12 -10 -10 -11 -10 -10 -10 -10 -10 -10 -9 -8 -8 -6 -6 -5 -4 -4 -3 -3 -2 -1 -1 0 1 2 3 3 -0 -2 -3 -4 -3 -3 -3 -2 0 2 1 -2 -2 -4 -2 -2 -2 -4 -4
-13 -12 -11 -11 -12 -11 -11 -11 -11 -11 -10 -9 -9 -9 -9 -9 -8 -7 -8 -7 -8 -8 -8 -10 -10 -10 -10 -10 -10 -10 -10 -7 -3 -1 1 10 6 -4 -10 -10 -10 -10 -9 -10 -10 -10 -10 -10 -11 -10 -8 -8 -7 -6 -5 -5 -5 -5 -4 -3 -3 -2 -1 -1 1 2 1 -2 -2 -3 -1 -0 -2 -0 1 1 -0 -2 -3 -4 -2 -3 -3 -3 -2
-14 -13 -13 -12 -12 -12 -12 -12 -12 -11 -11 -11 -10 -10 -9 -9 -8 -8 -10 -9 -9 -9 -10 -10 -10 -10 -11 -10 -10 -10 -10 -7 -4 -3 -2 9 4 -6 -10 -9 -10 -9 -9 -10 -10 -10 -10 -10 -10 -10 -9 -8 -8 -6 -5 -5 -6 -6 -6 -5 -4 -3 -2 -2 -2 -1 -0 -1 -2 -1 -1 -0 -0 -0 1 -1 -1 -2 -2 -2 -1 -1 -3 -2 -3
-15 -13 -13 -13 -13 -13 -13 -13 -13 -12 -12 -12 -11 -11 -10 -9 -9 -9 -10 -10 -10 -10 -10 -10 -10 -10 -11 -11 -11 -11 -11 -8 -6 -4 -3 8 -4 -9 -10 -9 -10 -10 -10 -10 -10 -11 -11 -10 -10 -10 -10 -9 -8 -6 -4 -6 -7 -8 -7 -6 -5 -4 -4 -3 -1 0 -1 -2 -2 -1 -2 -1 4 0 1 -2 -3 -3 -4 -6 -5 -6 -7 -8 -9
-14 -14 -14 -14 -14 -14 -14 -14 -14 -13 -13 -13 -13 -12 -11 -10 -10 -10 -11 -11 -10 -10 -10 -11 -11 -10 -11 -11 -12 -12 -12 -10 -7 -5 -5 6 -5 -11 -10 -12 -12 -11 -11 -11 -11 -11 -11 -10 -10 -11 -10 -10 -8 -6 -4 -5 -8 -9 -9 -8 -7 -7 -6 -5 -3 -2 -0 0 -0 4 4 4 3 4 4 1 -1 -2 -8 -10 -9 -8 -9 -10 -10
-14 -14 -15 -15 -15 -15 -15 -15 -14 -14 -14 -13 -13 -13 -12 -10 -11 -10 -10 -11 -11 -10 -10 -12 -11 -11 -11 -12 -12 -13 -12 -11 -9 -6 -6 -5 -7 -11 -12 -13 -13 -13 -12 -12 -13 -13 -11 -11 -10 -11 -11 -10 -8 -6 -5 -7 -9 -10 -10 -10 -10 -9 -8 -6 -7 -5 -3 -3 -3 -3 -4 -4 -4 -4 -3 -2 -2 -3 -8 -11 -8 -8 -10 -10 -11
-15 -16 -16 -16 -16 -16 -16 -15 -15 -15 -16 -14 -14 -13 -11 -11 -11 -10 -11 -11 -11 -11 -12 -12 -12 -11 -10 -11 -12 -13 -12 -11 -10 -7 -7 -6 -8 -11 -13 -14 -14 -14 -14 -15 -14 -15 -13 -12 -11 -11 -11 -10 -8 -6 -6 -7 -10 -10 -10 -11 -11 -11 -9 -7 -8 -8 -8 -8 -8 -7 -7 -7 -6 -7 -6 -5 -5 -5 -5 -7 -8 -10 -11 -11 -11
-16 -16 -16 -17 -18 -17 -16 -16 -16 -16 -16 -15 -15 -14 -12 -12 -11 -11 -11 -13 -13 -13 -13 -12 -12 -12 -11 -11 -12 -12 -13 -12 -11 -8 -7 -7 -7 -11 -14 -15 -15 -15 -15 -16 -17 -15 -14 -13 -12 -12 -11 -10 -9 -7 -6 -7 -10 -11 -11 -12 -12 -11 -8 -8 -9 -9 -8 -9 -9 -9 -10 -9 -9 -8 -7 -7 -7 -7 -6 -8 -8 -9 -11 -11 -11
-17 -18 -18 -17 -16 -16 -17 -16 -17 -16 -16 -15 -15 -14 -13 -13 -12 -12 -13 -14 -13 -13 -12 -12 -13 -12 -11 -11 -12 -12 -12 -13 -11 -10 -8 -8 -8 -10 -14 -14 -15 -15 -16 -17 -17 -17 -16 -16 -15 -13 -12 -10 -10 -8 -7 -7 -9 -11 -11 -12 -10 -7 -7 -10 -11 -9 -11 -12 -12 -13 -13 -12 -11 -11 -11 -11 -11 -10 -8 -7 -8 -8 -10 -11 -12
-18 -17 -16 -16 -16 -16 -16 -17 -17 -18 -17 -16 -17 -15 -13 -12 -13 -13 -15 -14 -13 -13 -12 -14 -14 -14 -13 -12 -12 -13 -13 -13 -13 -11 -10 -9 -9 -9 -14 -14 -13 -15 -17 -18 -17 -17 -16 -16 -16 -13 -12 -11 -10 -9 -9 -9 -10 -12 -11 -7 -7 -7 -10 -11 -13 -14 -15 -15 -15 -14 -13 -13 -14 -14 -14 -13 -13 -11 -9 -9 -8 -8 -9 -8 -10
-18 -17 -17 -16 -16 -16 -17 -17 -18 -18 -18 -17 -16 -15 -14 -14 -13 -13 -13 -14 -14 -14 -13 -14 -14 -15 -14 -15 -14 -13 -13 -14 -13 -12 -11 -10 -10 -9 -11 -12 -11 -15 -17 -18 -18 -18 -17 -16 -15 -13 -13 -12 -10 -10 -10 -11 -12 -12 -9 -9 -10 -10 -12 -14 -14 -15 -16 -15 -15 -15 -15 -16 -16 -15 -14 -14 -12 -9 -10 -9 -8 -8 -8 -8 -8
-17 -17 -17 -17 -16 -17 -17 -17 -17 -18 -18 -18 -17 -16 -15 -15 -14 -15 -14 -15 -16 -16 -16 -16 -15 -16 -16 -16 -16 -15 -14 -15 -13 -12 -12 -11 -11 -10 -10 -12 -12 -14 -15 -18 -18 -18 -18 -16 -15 -14 -14 -12 -12 -12 -13 -13 -14 -12 -12 -12 -12 -13 -15 -16 -16 -17 -16 -17 -18 -18 -17 -16 -15 -15 -14 -13 -12 -9 -9 -8 -9 -8 -8 -9 -8
-17 -17 -17 -17 -17 -18 -17 -17 -17 -17 -17 -18 -18 -18 -16 -15 -16 -15 -15 -15 -16 -16 -17 -16 -16 -16 -17 -16 -16 -16 -15 -15 -14 -13 -12 -12 -12 -12 -12 -12 -13 -13 -16 -17 -17 -18 -16 -15 -15 -15 -15 -14 -14 -14 -15 -15 -14 -14 -14 -14 -14 -17 -17 -17 -17 -18 -19 -18 -17 -16 -16 -15 -15 -14 -12 -11 -10 -9 -10 -10 -9 -9 -9 -9 -8
-18 -17 -17 -18 -17 -18 -17 -17 -17 -17 -17 -18 -18 -18 -17 -17 -17 -16 -16 -15 -15 -16 -17 -17 -16 -16 -17 -17 -17 -16 -15 -15 -15 -14 -13 -13 -13 -13 -13 -13 -14 -14 -15 -16 -16 -17 -17 -16 -16 -16 -16 -16 -17 -17 -17 -17 -16 -16 -16 -16 -18 -18 -17 -17 -17 -18 -18 -18 -17 -17 -17 -16 -15 -14 -12 -11 -12 -13 -12 -12 -12 -12 -12 -12 -12
-19 -18 -18 -18 -18 -18 -18 -19 -19 -18 -18 -18 -19 -19 -18 -17 -16 -16 -16 -15 -15 -16 -16 -16 -16 -17 -17 -17 -17 -16 -16 -16 -16 -15 -15 -16 -16 -15 -15 -15 -14 -15 -16 -17 -17 -19 -19 -18 -18 -17 -17 -17 -17 -17 -17 -17 -18 -19 -19 -18 -18 -17 -17 -17 -17 -18 -18 -18 -18 -17 -17 -16 -15 -14 -15 -15 -14 -14 -13 -13 -13 -13 -13 -13 -13
-19 -19 -18 -18 -19 -19 -19 -20 -20 -20 -19 -18 -20 -19 -18 -17 -17 -17 -16 -15 -16 -16 -16 -16 -17 -17 -17 -17 -17 -17 -17 -17 -16 -16 -16 -16 -17 -17 -16 -16 -17 -17 -18 -17 -17 -18 -19 -18 -18 -19 -19 -19 -19 -19 -20 -20 -20 -19 -19 -18 -18 -17 -16 -15 -15 -17 -18 -18 -18 -18 -17 -17 -17 -17 -16 -16 -15 -14 -13 -14 -14 -14 -14 -14 -15
-19 -18 -18 -18 -19 -20 -20 -20 -20 -20 -19 -18 -18 -19 -19 -18 -16 -16 -14 -14 -15 -16 -16 -17 -16 -16 -16 -17 -18 -18 -18 -17 -16 -13 -14 -13 -15 -17 -17 -17 -17 -18 -17 -16 -18 -19 -19 -19 -20 -20 -20 -20 -20 -21 -21 -21 -20 -19 -18 -18 -18 -18 -18 -18 -19 -19 -18 -18 -19 -19 -18 -18 -18 -17 -17 -17 -16 -15 -14 -14 -13 -15 -15 -15 -16
-18 -18 -18 -19 -19 -20 -21 -20 -19 -20 -20 -20 -19 -18 -16 -16 -16 -17 -17 -14 -13 -13 -13 -16 -15 -16 -17 -17 -16 -17 -18 -16 -13 -13 -13 -13 -14 -15 -14 -14 -15 -16 -16 -16 -19 -19 -20 -20 -19 -20 -20 -20 -21 -21 -21 -21 -21 -20 -20 -17 -19 -19 -19 -19 -19 -19 -18 -19 -19 -19 -19 -19 -19 -19 -18 -18 -17 -16 -15 -14 -15 -15 -16 -16 -17
-20 -20 -20 -20 -20 -20 -21 -20 -19 -20 -20 -20 -20 -20 -19 -18 -16 -15 -16 -15 -14 -14 -14 -14 -13 -14 -15 -17 -16 -14 -14 -14 -13 -13 -14 -14 -14 -15 -15 -15 -15 -16 -17 -19 -20 -19 -19 -19 -20 -20 -20 -20 -20 -20 -20 -20 -20 -20 -20 -19 -19 -19 -19 -19 -19 -18 -19 -19 -19 -19 -19 -19 -19 -19 -19 -18 -18 -17 -16 -15 -15 -16 -16 -17 -17
-20 -20 -20 -20 -21 -21 -21 -20 -20 -20 -20 -20 -20 -20 -20 -20 -18 -15 -16 -16 -16 -16 -16 -15 -15 -14 -14 -15 -16 -17 -15 -14 -14 -14 -14 -15 -16 -16 -16 -15 -16 -17 -18 -18 -21 -20 -19 -20 -20 -21 -21 -21 -20 -20 -20 -20 -20 -20 -20 -20 -20 -19 -19 -19 -18 -18 -19 -19 -19 -19 -19 -19 -20 -19 -19 -19 -18 -18 -17 -17 -17 -17 -17 -17 -17
-20 -20 -20 -20 -21 -21 -21 -21 -21 -21 -21 -21 -20 -20 -21 -21 -21 -20 -18 -18 -17 -17 -17 -17 -17 -16 -15 -15 -15 -15 -15 -15 -15 -15 -15 -16 -16 -17 -17 -17 -18 -19 -19 -21 -21 -19 -20 -20 -21 -21 -21 -21 -21 -21 -20 -20 -20 -20 -20 -20 -20 -20 -19 -18 -16 -18 -19 -19 -19 -19 -19 -19 -19 -19 -19 -19 -19 -19 -18 -18 -17 -17 -17 -17 -17
-22 -20 -20 -20 -21 -21 -21 -21 -21 -21 -21 -21 -21 -21 -20 -21 -20 -20 -21 -20 -19 -18 -16 -18 -18 -18 -17 -17 -17 -16 -16 -16 -16 -16 -17 -17 -17 -18 -17 -19 -18 -18 -20 -22 -20 -20 -20 -20 -20 -21 -21 -21 -21 -21 -21 -21 -20 -20 -20 -20 -20 -19 -18 -17 -18 -19 -19 -19 -19 -19 -19 -19 -19 -19 -20 -19 -19 -18 -18 -18 -18 -18 -18 -18 -17
-21 -20 -21 -20 -21 -21 -21 -21 -21 -21 -21 -21 -22 -22 -22 -21 -22 -22 -22 -22 -22 -21 -20 -20 -19 -19 -19 -19 -19 -17 -17 -17 -17 -17 -17 -17 -18 -19 -19 -21 -22 -22 -21 -21 -21 -21 -21 -21 -21 -21 -21 -21 -21 -21 -21 -20 -21 -21 -21 -21 -20 -20 -19 -19 -19 -18 -19 -19 -19 -19 -19 -19 -19 -19 -19 -20 -19 -19 -18 -18 -18 -18 -18 -17 -17
-21 -21 -20 -20 -20 -21 -21 -21 -20 -21 -21 -21 -22 -22 -22 -22 -22 -23 -23 -23 -22 -22 -21 -21 -21 -19 -19 -19 -19 -18 -18 -18 -18 -18 -18 -18 -19 -21 -23 -23 -22 -22 -23 -22 -22 -21 -21 -21 -21 -21 -21 -21 -21 -21 -21 -21 -21 -21 -21 -21 -21 -20 -20 -19 -19 -19 -18 -19 -18 -18 -18 -19 -19 -19 -19 -19 -18 -18 -18 -18 -18 -18 -17 -17 -17
-21 -21 -20 -20 -20 -21 -21 -21 -21 -21 -21 -22 -22 -22 -22 -22 -23 -23 -23 -23 -23 -23 -22 -22 -22 -21 -21 -22 -20 -19 -19 -19 -19 -19 -19 -20 -20 -23 -24 -24 -24 -23 -23 -23 -23 -23 -23 -22 -21 -21 -21 -22 -21 -21 -21 -21 -21 -20 -20 -21 -20 -20 -20 -19 -19 -18 -18 -19 -18 -18 -18 -18 -18 -18 -19 -19 -19 -18 -18 -18 -18 -18 -17 -17 -16
-22 -21 -20 -19 -20 -21 -21 -21 -22 -21 -22 -22 -22 -23 -22 -22 -23 -23 -23 -23 -23 -23 -23 -22 -22 -23 -23 -22 -21 -21 -21 -19 -20 -20 -22 -22 -22 -23 -23 -23 -23 -23 -24 -23 -23 -22 -23 -23 -21 -22 -22 -22 -22 -22 -22 -21 -21 -21 -21 -21 -20 -20 -18 -19 -18 -17 -18 -18 -18 -18 -19 -18 -18 -19 -19 -19 -19 -19 -19 -18 -18 -18 -17 -17 -16
-22 -23 -21 -20 -20 -21 -22 -22 -22 -22 -22 -23 -23 -23 -23 -23 -23 -23 -23 -23 -23 -23 -23 -23 -23 -24 -24 -24 -23 -21 -22 -23 -23 -23 -23 -23 -23 -23 -23 -23 -23 -24 -23 -23 -23 -23 -24 -24 -23 -22 -22 -22 -22 -22 -22 -22 -22 -21 -21 -21 -21 -20 -20 -20 -19 -19 -19 -19 -19 -19 -19 -19 -19 -19 -19 -19 -19 -18 -18 -18 -18 -18 -18 -17 -17
-23 -22 -21 -21 -22 -22 -22 -23 -23 -23 -23 -23 -23 -23 -23 -23 -23 -24 -24 -24 -24 -24 -24 -24 -24 -24 -24 -24 -23 -23 -23 -24 -24 -24 -24 -23 -23 -23 -23 -23 -24 -24 -24 -24 -23 -23 -23 -24 -24 -24 -23 -22 -22 -22 -22 -22 -22 -22 -22 -22 -22 -21 -20 -20 -20 -19 -19 -19 -19 -19 -19 -19 -19 -19 -18 -19 -19 -19 -18 -19 -18 -18 -17 -17 -16
-23 -22 -22 -21 -22 -22 -23 -23 -23 -23 -23 -24 -24 -24 -23 -24 -24 -25 -24 -24 -24 -24 -24 -24 -24 -24 -24 -24 -22 -22 -24 -24 -25 -25 -24 -24 -24 -23 -23 -23 -24 -23 -23 -24 -23 -24 -23 -23 -24 -23 -24 -23 -22 -23 -22 -22 -22 -22 -22 -22 -22 -21 -21 -20 -19 -19 -19 -19 -19 -20 -19 -19 -19 -19 -19 -19 -17 -18 -19 -19 -18 -18 -17 -17 -16
-22 -22 -22 -22 -22 -23 -23 -23 -23 -23 -24 -24 -24 -24 -24 -24 -25 -25 -25 -25 -25 -25 -25 -24 -24 -24 -24 -23 -23 -23 -24 -25 -25 -25 -25 -24 -24 -24 -24 -23 -23 -22 -22 -24 -23 -23 -23 -23 -23 -23 -24 -23 -23 -23 -23 -23 -23 -23 -23 -22 -22 -21 -21 -21 -20 -19 -19 -20 -20 -19 -19 -19 -19 -19 -19 -17 -19 -19 -19 -19 -18 -18 -18 -18 -17
-23 -23 -22 -23 -23 -23 -23 -23 -23 -23 -24 -23 -24 -24 -24 -25 -25 -25 -25 -25 -25 -25 -25 -24 -24 -24 -24 -24 -25 -24 -26 -25 -25 -25 -25 -24 -24 -24 -23 -23 -24 -23 -21 -22 -23 -23 -23 -23 -23 -24 -24 -23 -23 -23 -23 -23 -23 -23 -23 -22 -22 -22 -21 -21 -20 -20 -20 -20 -20 -19 -19 -19 -19 -19 -19 -19 -19 -19 -19 -19 -18 -18 -18 -18 -17
-23 -23 -23 -23 -23 -23 -24 -24 -24 -24 -24 -24 -24 -25 -25 -25 -25 -25 -25 -25 -25 -25 -25 -25 -25 -25 -25 -25 -25 -25 -25 -25 -25 -25 -25 -25 -24 -24 -24 -24 -23 -22 -21 -22 -22 -22 -23 -23 -24 -24 -23 -23 -22 -22 -23 -23 -23 -23 -22 -22 -22 -21 -21 -20 -20 -20 -20 -20 -20 -19 -19 -19 -19 -20 -19 -19 -19 -20 -19 -19 -19 -19 -18 -18 -18
-23 -23 -23 -23 -23 -23 -23 -24 -24 -25 -25 -25 -25 -25 -25 -26 -25 -25 -26 -26 -26 -26 -26 -26 -26 -26 -26 -26 -25 -25 -25 -25 -26 -25 -25 -24 -24 -24 -24 -23 -23 -23 -21 -22 -22 -21 -23 -23 -23 -23 -23 -23 -23 -22 -23 -23 -22 -22 -22 -22 -21 -22 -21 -20 -20 -19 -19 -19 -20 -20 -20 -20 -20 -20 -20 -20 -20 -20 -20 -19 -19 -19 -19 -18 -18
-23 -24 -24 -24 -24 -24 -24 -24 -25 -25 -25 -26 -25 -25 -25 -25 -25 -25 -26 -26 -26 -26 -26 -26 -26 -26 -26 -26 -26 -26 -26 -25 -25 -25 -25 -25 -25 -24 -24 -24 -23 -23 -23 -23 -23 -21 -22 -23 -23 -23 -23 -23 -23 -23 -23 -22 -22 -22 -21 -20 -20 -20 -20 -19 -19 -20 -20 -19 -20 -20 -20 -20 -20 -21 -21 -21 -21 -20 -20 -20 -19 -19 -19 -18 -18
-23 -24 -24 -24 -24 -25 -25 -25 -26 -25 -25 -26 -26 -25 -26 -26 -26 -26 -26 -27 -27 -27 -27 -27 -27 -26 -26 -26 -26 -26 -26 -26 -26 -25 -24 -24 -23 -24 -24 -23 -23 -23 -23 -23 -22 -22 -21 -21 -22 -22 -23 -23 -23 -23 -23 -23 -22 -22 -21 -21 -20 -20 -19 -20 -20 -20 -20 -19 -19 -20 -20 -21 -21 -21 -21 -21 -21 -21 -20 -20 -20 -19 -19 -19 -18
-24 -24 -24 -24 -25 -25 -25 -26 -26 -26 -26 -26 -26 -26 -26 -27 -26 -26 -27 -27 -27 -27 -27 -27 -27 -27 -27 -26 -26 -26 -26 -26 -26 -26 -25 -25 -24 -24 -23 -23 -23 -23 -23 -23 -23 -23 -23 -22 -22 -22 -23 -23 -23 -23 -22 -22 -22 -22 -22 -21 -21 -20 -20 -20 -21 -20 -19 -19 -20 -20 -20 -21 -21 -21 -21 -21 -21 -21 -21 -21 -21 -21 -20 -19 -19
-25 -25 -25 -25 -26 -26 -26 -26 -26 -26 -26 -27 -27 -27 -27 -27 -26 -27 -27 -27 -27 -27 -27 -27 -27 -27 -26 -26 -26 -26 -26 -26 -25 -25 -25 -24 -24 -23 -23 -22 -23 -23 -23 -23 -23 -22 -22 -23 -23 -22 -22 -23 -22 -22 -23 -22 -22 -22 -21 -21 -21 -21 -20 -20 -20 -20 -19 -20 -20 -20 -20 -20 -21 -21 -21 -21 -21 -21 -21 -21 -21 -20 -20 -19 -19
-26 -26 -26 -26 -26 -26 -26 -26 -27 -27 -27 -27 -27 -27 -27 -27 -27 -27 -27 -27 -27 -27 -26 -26 -26 -26 -26 -26 -26 -26 -26 -26 -26 -25 -25 -24 -24 -23 -23 -22 -22 -23 -23 -23 -23 -23 -23 -22 -22 -22 -22 -22 -22 -22 -22 -22 -22 -22 -21 -22 -21 -21 -21 -20 -19 -19 -20 -20 -21 -21 -21 -21 -21 -21 -22 -22 -21 -21 -21 -21 -21 -20 -20 -19 -19
-26 -26 -27 -27 -27 -27 -27 -27 -26 -26 -27 -28 -28 -27 -27 -27 -27 -27 -27 -26 -26 -26 -26 -26 -26 -26 -26 -26 -27 -26 -26 -25 -25 -25 -25 -24 -23 -23 -23 -23 -23 -23 -23 -23 -23 -23 -22 -23 -23 -23 -23 -22 -22 -21 -21 -21 -21 -21 -21 -21 -21 -21 -20 -19 -20 -20 -20 -20 -20 -21 -21 -21 -21 -21 -22 -22 -22 -22 -22 -21 -21 -20 -20 -20 -19